Rome, GA

5:30 PM EDT on April 25, 2018 (GMT -0400)
Russell

Weather History for KRMG - October, 2013

Change the Weather History Date:

Monday, October 28, 2013

  Actual Average Record
Temperature  
Mean Temperature 59 °F 57 °F  
Max Temperature 67 °F 70 °F 84 °F (2016)
Min Temperature 50 °F 44 °F 27 °F (2001)
Degree Days  
Heating Degree Days 6 9  
Month to date heating degree days 134 135  
Since 1 July heating degree days 135 149  
Cooling Degree Days 0 1  
Month to date cooling degree days 50 44  
Year to date cooling degree days 1571 1634  
Growing Degree Days 8 (Base 50)    
Moisture  
Dew Point 53 °F    
Average Humidity 84    
Maximum Humidity 100    
Minimum Humidity 68    
Precipitation  
Precipitation 0.02 in 0.12 in 1.60 in (2002)
Month to date precipitation 1.53 3.50  
Year to date precipitation 42.33  
Snow  
Snow 0.00 in - - ()
Month to date snowfall 0.0  
Since 1 July snowfall 0.0  
Since 1 September snowfall 0.0  
Snow Depth 0.00 in    
Sea Level Pressure  
Sea Level Pressure 30.20 in    
Wind  
Wind Speed 1 mph (ESE)    
Max Wind Speed 7 mph    
Max Gust Speed 25 mph    
Visibility 4 miles    
Events Fog , Rain    
T = Trace of Precipitation, MM = Missing Value Source: NWS Daily Summary

Daily Weather History Graph

Daily Weather History Graph

Search for Another Location

Airport or City:

Astronomy

Oct. 28, 2013 Rise Set
Actual Time 7:57 AM EDT 6:51 PM EDT
Civil Twilight 7:31 AM EDT 7:16 PM EDT
Nautical Twilight 7:01 AM EDT 7:46 PM EDT
Astronomical Twilight 6:32 AM EDT 8:15 PM EDT
Moon 2:04 AM EDT (10/28) 3:18 PM EDT (10/28)
Length of Visible Light 11h 45m
Length of Day
10h 53m
Waning Crescent, 34% of the Moon is Illuminated
Oct 28
Waning Crescent
Nov 3
New
Nov 10
First Quarter
Nov 17
Full
Nov 25
Last Quarter

Hourly Weather History & Observations

Time (EDT) Temp. Dew Point Humidity Pressure Visibility Wind Dir Wind Speed Gust Speed Precip Events Conditions
12:53 AM 53.1 °F 52.0 °F 96% 30.13 in 6.0 mi Calm Calm - 0.01 in Rain Light Rain
1:53 AM 53.1 °F 52.0 °F 96% 30.11 in 4.0 mi Variable 3.5 mph - 0.02 in Rain Light Rain
2:53 AM 53.1 °F 53.1 °F 100% 30.13 in 4.0 mi Calm Calm - 0.00 in   Overcast
3:42 AM 53.6 °F 53.6 °F 100% 30.15 in 2.0 mi Calm Calm - N/A   Overcast
3:53 AM 53.1 °F 52.0 °F 96% 30.14 in 2.5 mi Calm Calm - N/A   Overcast
4:20 AM 53.6 °F 51.8 °F 94% 30.15 in 1.5 mi Calm Calm - N/A   Overcast
4:27 AM 51.8 °F 51.8 °F 100% 30.15 in 0.8 mi Calm Calm - N/A   Mostly Cloudy
4:37 AM 51.8 °F 51.8 °F 100% 30.16 in 0.2 mi Calm Calm - N/A Fog Fog
4:44 AM 51.8 °F 51.8 °F 100% 30.16 in 0.2 mi Calm Calm - N/A Fog Fog
4:48 AM 51.8 °F 51.8 °F 100% 30.16 in 0.5 mi Calm Calm - N/A Fog Fog
4:53 AM 51.1 °F 51.1 °F 100% 30.14 in 1.0 mi Calm Calm - N/A   Overcast
5:07 AM 51.8 °F 51.8 °F 100% 30.16 in 2.0 mi Calm Calm - N/A   Overcast
5:14 AM 51.8 °F 51.8 °F 100% 30.16 in 1.0 mi Calm Calm - N/A   Overcast
5:31 AM 51.8 °F 51.8 °F 100% 30.16 in 2.5 mi Calm Calm - N/A   Overcast
5:42 AM 51.8 °F 51.8 °F 100% 30.17 in 1.0 mi Calm Calm - N/A   Mostly Cloudy
5:50 AM 51.8 °F 50.0 °F 94% 30.17 in 0.5 mi Calm Calm - N/A Fog Fog
5:53 AM 50.0 °F 50.0 °F 100% 30.16 in 0.5 mi Calm Calm - N/A Fog Fog
5:58 AM 50.0 °F 50.0 °F 100% 30.17 in 0.2 mi Calm Calm - N/A Fog Fog
6:03 AM 50.0 °F 50.0 °F 100% 30.18 in 0.5 mi Calm Calm - N/A Fog Fog
6:13 AM 50.0 °F 50.0 °F 100% 30.18 in 2.0 mi Calm Calm - N/A   Overcast
6:42 AM 50.0 °F 50.0 °F 100% 30.19 in 1.5 mi Calm Calm - N/A   Overcast
6:53 AM 51.1 °F 51.1 °F 100% 30.18 in 1.5 mi Calm Calm - N/A   Overcast
7:11 AM 51.8 °F 51.8 °F 100% 30.20 in 2.0 mi Calm Calm - N/A   Overcast
7:53 AM 51.1 °F 51.1 °F 100% 30.19 in 2.0 mi Calm Calm - N/A   Overcast
8:53 AM 53.1 °F 52.0 °F 96% 30.21 in 2.5 mi Calm Calm - N/A   Overcast
9:19 AM 53.6 °F 53.6 °F 100% 30.23 in 3.0 mi Calm Calm - N/A   Overcast
9:53 AM 54.0 °F 54.0 °F 100% 30.23 in 3.0 mi ESE 3.5 mph - 0.00 in Rain Light Rain
10:51 AM 55.4 °F 55.4 °F 100% 30.26 in 5.0 mi Calm Calm - 0.00 in   Overcast
10:53 AM 55.9 °F 55.0 °F 97% 30.25 in 5.0 mi Calm Calm - 0.00 in   Overcast
11:46 AM 57.2 °F 55.4 °F 94% 30.27 in 4.0 mi Calm Calm - 0.00 in   Overcast
11:53 AM 57.0 °F 55.9 °F 96% 30.26 in 5.0 mi Calm Calm - 0.00 in   Overcast
12:06 PM 57.2 °F 55.4 °F 94% 30.27 in 6.0 mi Calm Calm - N/A   Overcast
12:53 PM 59.0 °F 55.9 °F 90% 30.26 in 8.0 mi Calm Calm - N/A   Overcast
1:53 PM 62.1 °F 57.9 °F 86% 30.23 in 9.0 mi Calm Calm - N/A   Overcast
2:53 PM 63.0 °F 55.9 °F 78% 30.21 in 10.0 mi Calm Calm - N/A   Overcast
3:53 PM 66.0 °F 55.9 °F 70% 30.19 in 10.0 mi Variable 5.8 mph - N/A   Overcast
4:53 PM 66.0 °F 55.0 °F 68% 30.20 in 10.0 mi Variable 3.5 mph - N/A   Overcast
5:53 PM 64.9 °F 55.0 °F 70% 30.21 in 10.0 mi Calm Calm - N/A   Overcast
6:53 PM 63.0 °F 55.9 °F 78% 30.22 in 10.0 mi Calm Calm - N/A   Overcast
7:53 PM 61.0 °F 57.0 °F 87% 30.24 in 10.0 mi Calm Calm - N/A   Overcast
8:53 PM 60.1 °F 57.0 °F 90% 30.24 in 10.0 mi Calm Calm - N/A   Overcast
9:53 PM 57.9 °F 55.9 °F 93% 30.25 in 9.0 mi Calm Calm - N/A   Mostly Cloudy
10:53 PM 55.0 °F 55.0 °F 100% 30.27 in 4.0 mi Calm Calm - N/A   Clear
11:32 PM 53.6 °F 53.6 °F 100% 30.27 in 2.5 mi Calm Calm - N/A   Partly Cloudy
11:38 PM 53.6 °F 53.6 °F 100% 30.27 in 1.8 mi Calm Calm - N/A   Mostly Cloudy
11:53 PM 53.1 °F 53.1 °F 100% 30.26 in 2.0 mi Calm Calm - N/A   Mostly Cloudy